PDT,Max TemperatureF,Mean TemperatureF,Min TemperatureF,Max Dew PointF,MeanDew PointF,Min DewpointF,Max Humidity, Mean Humidity, Min Humidity, Max Sea Level PressureIn, Mean Sea Level PressureIn, Min Sea Level PressureIn, Max VisibilityMiles, Mean VisibilityMiles, Min VisibilityMiles, Max Wind SpeedMPH, Mean Wind SpeedMPH, Max Gust SpeedMPH,PrecipitationIn, CloudCover, Events, WindDirDegrees
2012-10-1,98,74,50,51,43,32,77,45,12,29.98,29.91,29.84,10,10,10,14,4,16,0.00,0,,209
2012-10-2,98,75,51,52,44,40,68,42,16,29.86,29.81,29.74,10,10,8,9,3,10,0.00,0,,212
2012-10-3,82,68,53,58,52,45,86,61,36,29.97,29.85,29.78,10,10,10,22,9,26,0.00,0,,200
2012-10-4,71,64,56,56,53,52,86,68,49,30.11,30.05,29.98,10,10,10,22,13,25,0.00,3,,258
2012-10-5,74,64,53,55,52,50,89,69,49,30.13,30.09,30.03,10,10,10,18,10,23,0.00,4,,263
2012-10-6,74,59,43,53,48,44,100,69,38,30.07,30.02,29.93,10,6,0,17,6,22,0.00,0,Fog,251
2012-10-7,74,59,43,54,48,41,100,74,47,30.02,29.97,29.90,10,6,0,21,7,26,0.00,2,Fog,252
2012-10-8,72,57,42,53,48,41,93,70,47,30.01,29.99,29.96,10,9,2,17,7,25,0.00,0,,258
2012-10-9,73,59,44,54,48,44,100,72,44,30.03,29.98,29.90,10,8,0,15,5,17,0.00,1,Fog,252
2012-10-10,73,58,43,54,49,43,92,71,49,29.94,29.90,29.83,10,10,9,18,7,22,0.02,1,Rain,237
2012-10-11,60,57,54,52,51,49,93,81,69,29.96,29.91,29.86,10,10,6,16,9,20,0.00,7,,260
2012-10-12,62,53,44,51,49,44,93,77,60,30.20,30.08,29.94,10,10,10,9,4,16,0.00,7,,225
2012-10-13,75,59,43,56,48,41,96,70,44,30.29,30.21,30.14,10,10,10,14,4,21,0.00,0,,219
2012-10-14,75,64,52,58,55,52,100,79,57,30.22,30.16,30.05,10,5,0,9,2,22,0.00,5,Fog,232
2012-10-15,81,66,50,59,55,48,100,71,42,30.10,30.03,29.92,10,6,0,15,4,17,0.00,4,Fog,195
2012-10-16,87,71,54,63,58,53,100,72,44,29.96,29.90,29.83,10,10,4,18,5,23,0.00,0,,207
2012-10-17,87,69,50,55,47,32,93,54,14,29.90,29.85,29.78,10,10,10,10,4,13,0.00,0,,187
2012-10-18,90,68,46,63,48,33,93,57,21,30.03,29.93,29.86,10,10,10,22,8,28,0.00,1,,223
2012-10-19,74,65,55,61,58,54,97,79,61,30.04,29.97,29.89,10,10,10,18,9,21,0.00,4,,247
2012-10-20,75,63,50,56,52,46,100,71,41,29.91,29.86,29.76,10,6,0,20,7,23,0.00,4,Fog,238
2012-10-21,70,56,41,49,41,33,89,58,26,29.90,29.85,29.82,10,10,10,23,7,26,0.11,1,Rain,253
2012-10-22,67,59,51,54,50,44,93,73,52,29.92,29.81,29.70,10,8,2,22,10,32,0.98,8,Rain,231
2012-10-23,64,55,45,48,45,39,93,68,43,30.04,29.99,29.92,10,10,10,15,4,28,0.00,2,,257
2012-10-24,66,58,49,52,49,43,93,69,44,30.19,30.08,30.00,10,9,4,16,5,21,0.01,7,Rain,200
2012-10-25,71,58,44,53,49,40,93,65,37,30.27,30.22,30.18,10,9,2,14,5,17,0.01,6,Rain,4
2012-10-26,74,58,41,49,42,37,89,59,29,30.22,30.14,30.07,10,10,10,8,2,17,0.00,0,,167
2012-10-27,80,64,47,56,52,46,93,66,39,30.06,30.00,29.92,10,10,10,8,2,18,0.00,0,,180
2012-10-28,80,64,48,58,53,47,100,70,39,30.00,29.96,29.92,10,8,1,10,3,28,0.00,0,,195
2012-10-29,74,62,50,57,53,51,100,75,49,30.12,30.04,30.00,10,4,0,8,2,13,0.00,2,Fog,211
2012-10-30,67,60,53,56,54,52,100,84,68,30.09,30.02,29.93,10,4,0,12,3,23,0.00,5,Fog,235
2012-10-31,64,60,55,58,55,53,93,80,67,30.01,29.98,29.94,10,8,3,20,6,23,0.23,8,Rain,237